This demonstration page uses our WeatherBlox Daily Observations layout. Learn more.

Left ArrowRight Arrow

40.92945, -100.16068

Hourly Observations for May 13, 2015

Temp ( °F °C ) Dew Point ( °F °C ) Humidity (%) Winds ( mph kmh ) Pressure ( in mb ) Visibility ( mi km ) Precip ( " mm )
12:15 am 00:15 Clear 55 12.8 40 4.4 57 57 SSE 16 26 30.06 1018 10 16.0934 N/A
12:35 am 00:35 Clear 55 12.8 40 4.3 57 57 SSE 18 30 30.06 1018 10 16.0934 N/A
12:55 am 00:55 Clear 55 12.6 40 4.6 58 58 SSE 20 31 30.06 1018 10 16.0934 N/A
1:15 am 01:15 Clear 55 12.7 40 4.7 59 59 S 22 35 30.06 1018 10 16.0934 N/A
1:35 am 01:35 Clear 54 12.2 41 4.8 61 61 S 23 37 30.06 1018 10 16.0934 N/A
1:55 am 01:55 Clear 54 12 41 5 63 63 S 20 31 30.06 1018 10 16.0934 N/A
2:15 am 02:15 Clear 53 11.8 41 5.1 64 64 S 22 35 30.06 1018 10 16.0934 N/A
2:35 am 02:35 Clear 53 11.5 41 5.1 65 65 S 16 26 30.06 1018 10 16.0934 N/A
2:55 am 02:55 Clear 53 11.4 41 5.2 66 66 S 18 30 30.06 1018 10 16.0934 N/A
3:15 am 03:15 Clear 52 11 41 5.2 68 68 S 17 28 30.06 1018 10 16.0934 N/A
3:35 am 03:35 Clear 51 10.8 42 5.3 69 69 SSE 16 26 30.06 1018 10 16.0934 N/A
3:55 am 03:55 Clear 51 10.6 41 5.2 70 70 SSE 14 22 30.06 1018 10 16.0934 N/A
4:15 am 04:15 Clear 51 10.6 42 5.3 70 70 SSE 15 24 30.06 1018 10 16.0934 N/A
4:35 am 04:35 Clear 51 10.6 42 5.3 70 70 SSE 16 26 30.03 1017 10 16.0934 N/A
4:55 am 04:55 Clear 51 10.5 41 5.2 70 70 SSE 17 28 30.03 1017 10 16.0934 N/A
5:15 am 05:15 Clear 51 10.5 42 5.3 70 70 SSE 17 28 30.03 1017 10 16.0934 N/A
5:35 am 05:35 Partly Cloudy 51 10.7 42 5.3 70 70 SSE 18 30 30.03 1017 10 16.0934 N/A
5:55 am 05:55 Partly Cloudy 51 10.8 42 5.3 69 69 SSE 18 30 30.03 1017 10 16.0934 N/A
6:15 am 06:15 Partly Cloudy 51 10.3 41 5.2 71 71 SSE 14 22 30.06 1018 10 16.0934 N/A
6:35 am 06:35 Sunny 50 10.1 42 5.3 72 72 SSE 14 22 30.06 1018 10 16.0934 N/A
6:55 am 06:55 Partly Cloudy 51 10.4 42 5.5 72 72 SSE 14 22 30.06 1018 10 16.0934 N/A
7:15 am 07:15 Sunny 51 10.5 42 5.6 72 72 SSE 20 31 30.03 1017 10 16.0934 N/A
7:35 am 07:35 Sunny 52 11 43 6 72 72 SSE 20 31 30.06 1018 10 16.0934 N/A
7:55 am 07:55 Sunny 53 11.5 43 6.3 71 71 SSE 22 35 30.03 1017 10 16.0934 N/A
8:15 am 08:15 Sunny 54 12.1 44 6.8 70 70 SSE 22 35 30.03 1017 10 16.0934 N/A
8:35 am 08:35 Sunny 54 12.2 45 7.2 72 72 SSE 20 31 30.06 1018 10 16.0934 N/A
8:55 am 08:55 Sunny 57 13.9 46 7.9 67 67 SSE 24 39 30.03 1017 10 16.0934 N/A
9:15 am 09:15 Sunny 58 14.2 46 7.9 66 66 SSE 25 41 30.03 1017 10 16.0934 N/A
9:35 am 09:35 Sunny 58 14.7 47 8.2 65 65 S 25 41 30 1016 10 16.0934 N/A
9:55 am 09:55 Sunny 59 15 47 8.3 64 64 SSE 29 46 30 1016 10 16.0934 N/A
10:15 am 10:15 Sunny 60 15.5 48 8.7 64 64 S 28 44 30 1016 10 16.0934 N/A
10:35 am 10:35 Sunny 62 16.4 49 9.4 63 63 S 26 43 30 1016 10 16.0934 N/A
10:55 am 10:55 Sunny 64 17.5 50 9.9 61 61 S 28 44 29.97 1015 10 16.0934 N/A
11:15 am 11:15 Sunny 65 18.1 50 10.2 60 60 S 24 39 29.97 1015 10 16.0934 N/A
11:35 am 11:35 Sunny 66 18.9 52 11.1 61 61 S 28 44 29.97 1015 10 16.0934 N/A
11:55 am 11:55 Partly Cloudy 68 20.2 53 11.8 59 59 SSE 26 43 29.97 1015 10 16.0934 N/A
12:15 pm 12:15 Partly Cloudy 68 20.2 53 11.7 58 58 SSE 28 44 29.97 1015 10 16.0934 N/A
12:35 pm 12:35 Partly Cloudy 70 20.9 54 12.2 58 58 S 25 41 29.94 1014 10 16.0934 N/A
12:55 pm 12:55 Partly Cloudy 69 20.5 54 12.1 59 59 SSE 24 39 29.94 1014 10 16.0934 N/A
1:15 pm 13:15 Partly Cloudy 69 20.8 55 12.5 59 59 S 25 41 29.94 1014 10 16.0934 N/A
1:35 pm 13:35 Partly Cloudy 69 20.5 55 12.9 62 62 S 23 37 29.94 1014 10 16.0934 N/A
1:55 pm 13:55 Partly Cloudy 69 20.6 55 12.9 61 61 S 25 41 29.94 1014 10 16.0934 N/A
2:15 pm 14:15 Mostly Cloudy 70 21 56 13.2 61 61 S 23 37 29.94 1014 10 16.0934 N/A
2:40 pm 14:40 Mostly Cloudy 69 20.5 56 13.5 64 64 S 23 37 29.94 1014 10 16.0934 N/A
2:55 pm 14:55 Cloudy 68 20.2 56 13.3 65 65 SSE 25 41 29.97 1015 10 16.0934 N/A
3:15 pm 15:15 Cloudy 67 19.5 55 12.9 66 66 S 25 41 29.97 1015 10 16.0934 N/A
3:35 pm 15:35 Mostly Cloudy 67 19.6 56 13.2 67 67 SSE 26 43 29.97 1015 10 16.0934 N/A
3:55 pm 15:55 Mostly Cloudy 65 18.3 54 12.3 68 68 S 23 37 29.97 1015 10 16.0934 N/A
4:15 pm 16:15 Cloudy 65 18.4 54 12.1 67 67 SSE 22 35 29.97 1015 10 16.0934 N/A
4:35 pm 16:35 Cloudy 64 17.9 53 11.7 67 67 S 20 31 29.97 1015 10 16.0934 N/A
4:55 pm 16:55 Cloudy with Light Rain 63 17.1 54 12.2 73 73 S 14 22 29.97 1015 10 16.0934 N/A
5:15 pm 17:15 Cloudy 64 17.5 54 12.2 71 71 SSE 16 26 29.97 1015 10 16.0934 N/A
5:35 pm 17:35 Mostly Cloudy 65 18.2 54 12 67 67 S 20 31 29.94 1014 10 16.0934 N/A
5:55 pm 17:55 Cloudy 64 18 54 12.2 69 69 SSE 21 33 29.94 1014 10 16.0934 N/A
6:15 pm 18:15 Cloudy 64 17.9 55 12.5 71 71 SSE 21 33 29.94 1014 10 16.0934 N/A
6:35 pm 18:35 Mostly Cloudy 64 17.5 55 12.5 73 73 SSE 18 30 29.94 1014 10 16.0934 N/A
6:55 pm 18:55 Mostly Cloudy 63 17.1 54 12.4 74 74 SSE 14 22 29.94 1014 10 16.0934 N/A
7:15 pm 19:15 Cloudy 62 16.8 54 12 73 73 SE 16 26 29.94 1014 10 16.0934 N/A
7:35 pm 19:35 Cloudy 62 16.5 53 11.7 73 73 SSE 21 33 29.94 1014 10 16.0934 N/A
7:55 pm 19:55 Cloudy with Drizzle 60 15.7 54 12.1 79 79 SE 15 24 29.97 1015 10 16.0934 N/A
8:15 pm 20:15 Cloudy with Drizzle 58 14.6 53 11.8 83 83 SSE 17 28 29.97 1015 10 16.0934 N/A
8:35 pm 20:35 Cloudy with Light Rain 57 14 54 12 88 88 SSE 18 30 29.97 1015 10 16.0934 N/A
8:55 pm 20:55 Cloudy with Rain 56 13.6 54 12.2 91 91 SE 13 20 29.97 1015 7 11.26538 0.02 0.508
9:15 pm 21:15 Cloudy with Rain 55 13 53 11.7 92 92 SE 12 19 30 1016 7 11.26538 0.03 0.762
9:35 pm 21:35 Cloudy with Light Rain 55 12.8 53 11.7 93 93 SE 12 19 30 1016 7 11.26538 0.05 1.27
9:55 pm 21:55 Cloudy with Light Rain 55 12.8 53 11.8 94 94 SE 13 20 30.03 1017 7 11.26538 0.07 1.778
10:15 pm 22:15 Cloudy with Light Rain 55 12.8 53 11.8 94 94 SE 13 20 30.03 1017 7 11.26538 0.02 0.508
10:35 pm 22:35 Cloudy with Light Rain 55 12.5 53 11.5 94 94 SE 15 24 30.03 1017 7 11.26538 0.04 1.016
10:55 pm 22:55 Cloudy with Light Rain 55 12.5 53 11.5 94 94 SE 9 15 30.03 1017 7 11.26538 0.06 1.524
11:15 pm 23:15 Cloudy with Light Rain 54 12.2 52 11.3 94 94 SE 10 17 30.03 1017 7 11.26538 0.01 0.254
11:35 pm 23:35 Cloudy with Light Rain 54 12.1 52 11.2 94 94 SE 10 17 30 1016 7 11.26538 0.03 0.762
11:55 pm 23:55 Cloudy with Light Rain 54 12 52 11.2 95 95 SE 10 17 30 1016 7 11.26538 0.05 1.27

Powered by AerisWeather